Wind_Speed
27 26 25 25 25 25 25 26 26 26 27 28 29 30 31 33 34 34 35 35 35 35 35 34 34 34 34 34 34 33 34 34 34 35 36 36 36 36 37 37 38 38 39
28 27 26 26 26 26 27 27 27 27 28 29 30 31 32 33 34 35 36 36 36 36 36 36 36 36 36 36 36 35 36 36 37 37 38 38 38 38 39 40 41 41 42
29 29 28 27 27 28 28 28 28 29 30 30 31 31 33 34 35 36 37 37 37 37 37 37 37 37 38 38 38 38 38 38 39 40 40 40 40 41 42 43 44 45 45
30 30 30 29 29 29 29 29 29 30 31 32 33 33 33 34 35 36 37 37 38 38 38 39 39 39 39 39 39 40 40 41 41 42 42 43 43 44 45 46 47 48 48
32 31 31 31 31 30 30 30 30 31 31 32 33 33 34 34 35 36 37 38 38 39 39 40 40 40 40 41 41 42 42 43 43 44 45 45 46 47 48 49 50 51 51
33 33 33 32 32 32 31 31 32 31 32 33 33 34 35 35 36 37 38 39 39 40 41 41 42 42 42 42 43 44 44 45 46 47 47 48 49 50 51 52 53 54 55
34 34 34 33 33 33 33 33 33 33 33 33 34 35 35 36 37 38 39 39 40 41 42 42 43 43 43 44 45 46 47 48 48 49 50 51 52 53 54 56 56 57 58
37 36 36 35 35 34 34 34 34 34 34 35 35 36 37 37 39 39 40 40 41 42 42 43 44 44 45 46 47 48 49 50 51 52 53 55 56 57 58 59 60 60 60
39 39 38 37 36 36 35 35 35 35 35 36 36 37 37 38 39 40 41 42 42 43 44 45 46 46 47 48 49 50 52 53 54 56 57 58 59 60 61 61 62 63 63
42 41 40 39 38 37 36 36 36 36 37 37 38 38 39 39 40 41 42 43 44 44 45 46 47 48 49 50 52 53 55 56 58 59 60 62 62 63 64 65 65 66 67
44 43 42 41 40 39 38 38 37 37 38 39 39 40 41 41 42 43 43 44 45 46 47 48 49 50 51 53 54 56 58 59 61 62 63 64 65 66 67 68 69 70 71
46 45 45 43 42 41 40 40 39 39 39 40 41 42 43 43 43 44 45 46 46 47 49 51 52 54 55 56 58 60 61 62 64 65 66 67 68 69 70 71 72 74 75
47 47 46 45 44 43 42 41 40 40 41 41 42 43 43 44 45 47 48 48 48 48 50 52 54 57 58 60 62 63 64 66 67 67 68 69 71 72 73 75 76 78 79
48 48 47 46 45 44 43 42 41 41 42 43 44 44 45 46 48 49 50 51 51 51 52 53 56 59 61 62 64 66 67 68 69 70 71 72 74 75 77 79 80 82 84
49 49 48 47 46 45 44 43 42 43 43 45 45 46 47 48 50 52 53 54 55 55 55 56 58 61 63 64 66 68 69 70 71 72 74 76 78 80 82 83 85 86 86
50 49 48 47 46 45 44 43 43 43 44 45 46 47 49 50 52 54 55 57 58 59 60 60 62 63 65 66 68 69 70 72 73 76 78 81 83 84 86 87 87 87 86
50 49 47 46 45 44 44 43 43 44 45 46 47 49 51 53 55 57 58 59 61 62 63 64 66 68 69 70 70 72 73 75 77 81 83 85 87 88 88 87 85 83 80
48 47 46 45 44 43 42 42 43 43 45 47 48 50 53 55 57 59 60 61 63 65 66 67 68 70 71 72 73 75 77 80 83 85 87 88 88 87 84 81 77 73 70
45 44 43 42 42 41 40 41 42 44 45 47 50 52 54 57 59 60 61 63 65 67 68 70 70 71 72 75 77 79 81 85 87 89 89 87 84 80 75 72 68 64 61
42 41 40 39 39 39 39 41 42 43 47 50 52 54 57 58 60 61 63 65 66 68 70 71 72 73 75 78 81 83 84 86 86 86 84 80 75 70 67 64 60 56 53
37 36 36 35 36 37 38 40 42 45 48 52 54 56 58 59 61 63 65 66 68 69 71 73 74 76 79 82 85 86 86 83 80 79 75 70 66 62 59 57 53 50 48
32 31 31 32 34 36 37 40 44 47 51 53 55 57 59 61 63 65 66 68 70 72 74 76 78 80 83 85 86 86 83 78 71 68 65 60 58 55 53 51 50 49 47
27 28 30 31 33 36 39 43 46 49 51 53 56 58 60 62 64 65 67 69 71 74 77 79 81 83 85 85 85 81 76 70 63 59 57 52 52 50 49 49 49 49 47
26 27 29 31 34 38 41 44 47 50 52 54 57 59 60 62 64 66 68 70 73 76 79 81 84 85 85 83 78 72 65 59 53 52 53 50 48 47 46 48 49 49 47
24 27 29 33 36 39 41 45 48 50 52 55 57 59 61 63 66 68 70 72 74 78 81 83 84 82 78 73 67 61 56 53 49 49 52 51 48 47 45 46 48 49 47
24 27 30 33 36 39 42 46 48 50 52 54 57 60 63 65 67 70 72 74 76 78 79 78 77 73 67 62 58 55 53 52 50 49 50 50 49 48 43 41 44 46 45
Wind_Direction
278 280 282 282 281 280 280 281 280 280 281 281 280 279 278 278 278 278 279 279 280 281 281 282 282 282 283 283 283 282 281 281 282 283 283 282 282 281 280 280 279 278 277
277 278 280 281 280 280 280 281 281 282 282 282 281 281 281 281 280 280 280 281 281 282 282 282 282 282 283 283 283 282 282 282 282 283 283 282 282 281 280 280 280 279 277
274 275 277 278 279 280 280 281 282 283 283 283 283 283 282 282 281 282 282 282 282 282 282 282 283 282 283 283 283 282 282 283 283 283 283 283 282 282 282 282 281 279 278
273 274 275 276 278 278 280 281 283 283 284 284 284 284 284 283 283 283 283 283 283 283 283 283 283 284 283 284 284 283 283 283 283 283 283 283 283 283 283 283 282 281 279
271 272 273 274 276 278 280 282 284 284 286 287 286 286 286 286 285 285 285 284 284 284 284 285 285 285 285 284 284 284 284 284 284 284 283 283 283 283 283 283 282 281 279
270 271 272 273 275 277 279 282 284 286 287 288 288 288 289 288 288 288 287 286 285 285 285 285 286 286 286 285 285 285 285 285 285 284 284 284 284 284 284 283 282 281 280
269 270 271 272 274 276 278 281 283 285 287 289 289 290 289 289 289 289 289 288 287 286 286 286 286 287 287 286 286 286 286 286 286 285 285 285 285 285 285 284 283 282 280
267 268 269 271 272 275 277 280 282 284 286 288 289 290 290 288 289 289 289 289 289 289 288 287 287 288 288 287 287 287 287 287 286 286 287 287 286 286 285 284 283 282 281
265 266 268 269 272 274 276 279 281 284 286 287 289 290 290 289 289 290 291 290 290 290 289 288 288 288 288 288 288 288 288 288 288 288 288 288 288 287 286 285 284 283 281
263 265 267 269 271 272 275 277 280 283 285 287 288 289 290 290 289 290 290 290 291 291 290 290 289 289 289 289 289 289 290 290 290 290 290 290 289 289 288 287 285 284 283
262 263 265 267 269 271 273 276 279 283 285 287 289 289 290 291 291 291 291 292 292 292 292 291 291 290 291 291 291 291 291 291 292 292 291 291 290 290 289 288 287 285 284
260 261 263 265 267 270 272 275 278 281 284 286 288 289 290 291 291 292 292 293 293 293 293 293 293 292 293 293 293 293 293 293 293 292 292 291 291 290 289 288 287 286 284
259 260 261 264 266 269 272 274 277 280 283 285 287 289 291 292 292 293 292 293 293 292 293 293 293 293 294 294 294 294 294 294 294 293 292 292 291 290 289 288 287 286 285
256 257 259 262 265 268 271 273 276 279 282 285 288 290 291 292 293 294 293 293 293 293 293 293 294 294 295 295 295 295 295 295 294 294 293 292 292 291 290 289 288 287 286
253 255 257 260 263 266 270 273 276 279 282 286 288 290 292 293 293 293 294 294 294 294 293 294 294 295 296 296 296 296 296 295 295 294 294 293 293 292 292 291 290 288 287
250 253 254 258 261 265 269 272 275 278 283 285 288 290 291 292 293 294 295 295 295 295 295 296 296 296 297 297 297 296 296 296 296 295 295 295 294 293 293 292 291 289 288
248 250 253 257 260 264 268 272 275 279 282 286 288 290 291 292 293 294 295 296 296 296 297 298 298 299 299 298 298 298 298 298 298 297 297 296 296 295 294 293 291 290 288
246 248 252 256 260 264 268 272 276 280 283 286 288 289 291 292 294 295 295 296 297 297 298 299 299 299 300 299 299 299 299 299 299 298 298 297 297 296 295 293 291 290 288
245 247 251 254 259 264 269 273 277 281 284 286 288 289 291 292 293 295 296 297 298 299 299 300 300 300 300 300 300 300 301 301 301 300 299 298 297 296 294 292 292 290 287
242 245 249 254 259 264 270 274 278 281 283 285 286 289 291 293 294 296 297 298 299 300 300 301 301 301 301 300 301 301 302 302 301 300 299 298 297 295 294 293 292 289 286
241 244 249 254 260 265 270 275 279 281 284 286 287 290 292 294 296 298 299 300 300 301 301 301 302 301 301 301 302 302 302 302 301 299 298 297 296 295 294 293 291 288 286
239 243 249 256 262 268 273 277 279 282 285 287 289 292 294 296 298 299 301 301 302 302 302 303 303 303 303 303 303 303 303 302 300 297 297 296 295 294 294 292 290 289 287
237 242 249 257 263 269 274 276 280 283 286 289 292 294 296 299 300 301 302 303 303 304 304 304 304 304 304 304 304 304 303 302 300 297 295 294 293 293 292 290 288 288 287
237 246 255 261 266 272 276 279 283 287 290 292 295 297 299 301 302 303 303 304 304 304 304 305 305 306 305 305 305 305 303 302 300 297 295 295 293 292 291 290 288 287 285
244 253 259 266 272 276 280 284 288 291 293 296 298 300 302 303 304 304 304 305 306 306 306 306 307 307 307 307 306 305 304 302 300 298 296 296 294 292 291 290 288 287 286
254 262 267 272 277 282 286 289 292 295 298 300 302 304 305 305 305 305 306 306 307 307 307 308 309 308 308 308 307 306 305 304 302 299 297 296 295 293 290 288 287 286 285
Height
5818 5818 5817 5817 5816 5816 5815 5814 5813 5812 5811 5810 5809 5808 5807 5805 5804 5803 5802 5801 5800 5799 5797 5796 5795 5794 5792 5791 5790 5788 5787 5786 5785 5784 5783 5782 5781 5780 5779 5778 5777 5777 5776
5812 5812 5812 5811 5811 5810 5809 5808 5807 5807 5805 5804 5803 5802 5800 5799 5797 5796 5794 5793 5792 5791 5789 5788 5787 5786 5784 5783 5782 5780 5779 5778 5777 5775 5774 5773 5772 5771 5769 5769 5768 5767 5766
5806 5806 5806 5806 5805 5804 5803 5802 5801 5800 5799 5798 5796 5795 5793 5791 5790 5788 5787 5785 5784 5783 5781 5780 5779 5777 5776 5774 5773 5772 5770 5769 5767 5766 5765 5763 5762 5760 5759 5758 5757 5756 5755
5800 5800 5800 5799 5798 5798 5797 5796 5795 5793 5792 5790 5789 5787 5786 5784 5782 5780 5779 5777 5775 5774 5772 5771 5770 5768 5767 5765 5764 5762 5761 5759 5758 5756 5754 5753 5751 5749 5748 5746 5745 5744 5743
5793 5793 5793 5793 5792 5791 5790 5789 5788 5786 5785 5783 5781 5780 5778 5776 5774 5772 5770 5769 5767 5765 5763 5762 5760 5758 5757 5755 5753 5752 5750 5748 5747 5745 5743 5741 5739 5738 5736 5734 5732 5731 5729
5786 5786 5786 5785 5785 5784 5783 5782 5781 5779 5778 5776 5774 5772 5770 5768 5766 5764 5762 5760 5758 5756 5754 5752 5750 5748 5746 5745 5743 5741 5739 5737 5735 5733 5731 5729 5727 5725 5722 5720 5718 5717 5715
5778 5778 5778 5778 5777 5777 5776 5775 5773 5772 5770 5768 5767 5764 5762 5760 5758 5756 5753 5751 5749 5747 5745 5742 5740 5738 5736 5734 5732 5729 5727 5725 5722 5720 5718 5715 5713 5710 5708 5705 5703 5701 5700
5770 5770 5770 5770 5769 5769 5768 5767 5766 5764 5763 5761 5759 5757 5755 5753 5750 5747 5745 5742 5739 5737 5735 5732 5730 5727 5725 5722 5720 5717 5714 5712 5709 5706 5704 5701 5698 5695 5692 5689 5687 5685 5683
5761 5761 5762 5762 5761 5761 5760 5759 5758 5757 5755 5753 5751 5749 5747 5745 5742 5739 5736 5733 5730 5727 5724 5721 5718 5716 5713 5710 5707 5704 5701 5698 5695 5691 5688 5685 5681 5678 5675 5672 5669 5667 5664
5752 5752 5753 5753 5753 5753 5752 5751 5750 5748 5747 5745 5743 5741 5738 5735 5733 5731 5728 5724 5720 5717 5713 5710 5707 5703 5701 5697 5694 5690 5687 5683 5679 5675 5671 5667 5663 5660 5656 5653 5650 5647 5644
5742 5743 5743 5744 5744 5744 5743 5743 5741 5740 5738 5736 5734 5732 5729 5726 5723 5720 5718 5714 5710 5706 5702 5698 5694 5690 5687 5684 5680 5676 5672 5667 5663 5658 5653 5649 5644 5640 5636 5632 5629 5625 5622
5732 5733 5734 5734 5735 5735 5734 5733 5732 5731 5729 5727 5725 5723 5720 5717 5714 5710 5708 5704 5700 5695 5690 5685 5680 5676 5673 5669 5664 5660 5655 5650 5645 5640 5635 5630 5625 5621 5616 5612 5607 5603 5599
5722 5723 5724 5725 5725 5725 5725 5724 5723 5722 5720 5718 5716 5713 5710 5707 5704 5700 5697 5693 5690 5686 5680 5674 5667 5662 5658 5653 5648 5643 5638 5632 5627 5621 5616 5610 5605 5600 5595 5590 5585 5580 5575
5711 5712 5714 5714 5715 5715 5715 5715 5714 5712 5710 5708 5706 5703 5700 5696 5693 5689 5685 5681 5677 5674 5669 5662 5655 5649 5643 5637 5631 5626 5620 5614 5607 5601 5595 5589 5583 5578 5572 5566 5560 5554 5548
5700 5702 5703 5704 5705 5706 5705 5705 5704 5703 5701 5698 5696 5693 5689 5685 5681 5677 5672 5667 5663 5659 5656 5650 5642 5635 5628 5622 5615 5608 5602 5595 5588 5581 5574 5567 5560 5553 5547 5540 5533 5527 5520
5688 5690 5693 5694 5695 5696 5696 5695 5694 5693 5691 5688 5685 5682 5678 5674 5669 5664 5659 5654 5648 5643 5639 5634 5627 5619 5612 5605 5597 5590 5583 5575 5567 5559 5551 5543 5536 5528 5520 5512 5505 5498 5491
5676 5680 5682 5684 5686 5686 5686 5686 5685 5683 5681 5678 5675 5671 5667 5662 5657 5651 5646 5640 5634 5627 5623 5617 5609 5601 5593 5585 5578 5570 5562 5554 5545 5535 5526 5517 5509 5500 5492 5483 5476 5469 5462
5666 5670 5673 5675 5676 5677 5677 5677 5675 5673 5671 5668 5664 5660 5655 5650 5644 5639 5632 5626 5619 5612 5606 5600 5593 5583 5574 5565 5558 5550 5541 5531 5521 5511 5500 5491 5482 5472 5463 5455 5448 5442 5437
5656 5660 5664 5666 5668 5668 5668 5667 5666 5664 5661 5657 5653 5648 5643 5637 5631 5625 5618 5611 5604 5596 5588 5581 5574 5565 5556 5545 5537 5529 5519 5508 5495 5483 5474 5465 5455 5446 5438 5431 5425 5420 5415
5648 5652 5655 5658 5659 5660 5659 5658 5656 5654 5650 5646 5641 5636 5630 5624 5618 5611 5604 5596 5589 5580 5571 5563 5555 5547 5537 5525 5516 5507 5499 5485 5472 5457 5448 5439 5431 5423 5415 5409 5405 5400 5396
5640 5644 5648 5650 5651 5651 5650 5649 5646 5643 5639 5634 5629 5623 5617 5611 5604 5597 5589 5581 5572 5563 5554 5545 5537 5527 5516 5505 5494 5483 5474 5464 5451 5434 5426 5418 5410 5403 5396 5390 5386 5382 5379
5634 5638 5640 5642 5642 5642 5641 5639 5636 5633 5628 5623 5617 5610 5604 5597 5589 5581 5573 5564 5554 5544 5535 5526 5516 5505 5494 5482 5471 5459 5449 5441 5432 5417 5407 5402 5391 5387 5380 5374 5369 5366 5363
5629 5631 5633 5634 5635 5634 5632 5630 5626 5621 5616 5610 5604 5598 5591 5583 5575 5566 5557 5548 5537 5525 5514 5505 5494 5482 5471 5460 5449 5438 5426 5417 5409 5397 5390 5387 5378 5373 5366 5359 5354 5350 5348
5624 5625 5627 5627 5627 5625 5623 5619 5615 5610 5604 5598 5591 5585 5577 5568 5559 5551 5542 5532 5520 5508 5496 5484 5473 5461 5448 5436 5425 5416 5406 5399 5392 5381 5371 5371 5365 5360 5354 5345 5338 5335 5333
5618 5619 5620 5619 5618 5616 5613 5609 5604 5599 5592 5585 5578 5570 5562 5554 5544 5535 5526 5516 5504 5490 5476 5463 5450 5438 5426 5414 5404 5397 5389 5382 5378 5370 5357 5353 5350 5345 5341 5333 5324 5318 5316
5613 5613 5613 5612 5610 5607 5603 5599 5594 5588 5581 5573 5565 5556 5547 5538 5528 5517 5508 5497 5486 5473 5459 5445 5431 5418 5407 5397 5387 5379 5372 5366 5359 5354 5345 5338 5333 5327 5328 5323 5312 5304 5301